GFSWCAN_prec_precacc_072.txt.gz
Total_Precipitation_Accumulation
0.87 0.71 0.56 0.39 0.44 0.37 0.41 0.55 0.54 0.54 0.47 0.47 0.52 0.40 0.29 0.39 0.79 1.13 1.20 0.77 1.77 0.86 0.21 0.25 0.19 0.05 0.01 0.21 0.42 0.17 0.27 0.31 0.36 0.26 0.13 0.06 0.02 0.01 0.01 0.01 0.07 0.03 0.05 0.05 0.11 0.09 0.02 0.00 0.01 0.05 0.04 0.03 0.04 0.03
1.19 0.89 0.47 0.34 0.37 0.41 0.44 0.60 0.57 0.56 0.41 0.38 0.49 0.44 0.37 0.47 0.99 1.02 0.95 0.90 1.50 1.23 0.50 0.23 0.27 0.10 0.02 0.06 0.28 0.07 0.14 0.14 0.14 0.16 0.11 0.08 0.03 0.01 0.00 0.00 0.01 0.06 0.04 0.05 0.06 0.02 0.00 0.00 0.01 0.02 0.03 0.04 0.03 0.03
1.18 1.02 0.74 0.44 0.36 0.41 0.54 0.62 0.54 0.59 0.48 0.43 0.56 0.56 0.46 0.67 1.11 0.91 0.75 0.95 2.08 1.96 0.79 0.32 0.32 0.25 0.11 0.05 0.14 0.17 0.08 0.05 0.07 0.14 0.16 0.16 0.10 0.02 0.01 0.01 0.02 0.04 0.03 0.09 0.12 0.03 0.03 0.06 0.03 0.02 0.03 0.04 0.05 0.14
1.10 1.00 0.90 0.63 0.44 0.40 0.44 0.47 0.43 0.54 0.58 0.57 0.75 0.70 0.64 1.02 1.02 0.85 0.86 1.09 1.66 1.75 1.27 0.43 0.21 0.25 0.17 0.08 0.07 0.09 0.07 0.07 0.10 0.19 0.30 0.30 0.22 0.10 0.06 0.02 0.07 0.05 0.04 0.04 0.09 0.05 0.07 0.09 0.16 0.14 0.13 0.19 0.16 0.05
0.76 0.84 0.72 0.63 0.58 0.47 0.39 0.41 0.45 0.58 0.74 0.71 0.99 0.79 0.98 1.06 0.97 1.00 1.02 1.28 1.18 1.32 1.05 0.60 0.33 0.31 0.44 0.22 0.20 0.15 0.13 0.21 0.29 0.33 0.29 0.18 0.07 0.08 0.07 0.07 0.09 0.02 0.01 0.04 0.05 0.06 0.13 0.17 0.18 0.23 0.18 0.06 0.04 0.06
0.66 0.62 0.68 0.55 0.52 0.60 0.54 0.56 0.60 0.62 0.57 0.78 0.87 0.86 0.98 0.96 1.14 1.35 1.72 1.21 1.26 0.94 0.72 0.87 0.46 0.35 0.49 0.53 0.38 0.41 0.29 0.26 0.38 0.30 0.19 0.09 0.05 0.15 0.14 0.06 0.01 0.00 0.01 0.04 0.06 0.06 0.10 0.15 0.12 0.05 0.01 0.01 0.01 0.00
0.77 0.63 0.61 0.57 0.56 0.64 0.79 0.70 0.59 0.52 0.61 0.81 0.70 0.92 0.95 0.88 0.87 0.97 0.99 0.87 0.93 0.81 0.75 0.56 0.66 0.46 0.58 0.51 0.62 0.37 0.39 0.36 0.45 0.50 0.25 0.12 0.06 0.24 0.31 0.11 0.00 0.01 0.02 0.01 0.01 0.04 0.05 0.03 0.02 0.01 0.00 0.00 0.00 0.00
0.76 0.59 0.48 0.47 0.48 0.50 0.60 0.75 0.71 0.67 0.70 0.62 0.83 1.07 1.03 1.06 1.01 0.70 0.38 0.45 0.76 0.92 0.68 0.37 0.43 0.62 0.75 0.58 0.50 0.57 0.53 0.48 0.49 0.59 0.36 0.16 0.16 0.25 0.27 0.05 0.00 0.00 0.00 0.01 0.01 0.01 0.03 0.02 0.00 0.00 0.00 0.00 0.00 0.01
0.48 0.41 0.40 0.40 0.42 0.45 0.51 0.62 0.70 0.65 0.59 0.76 1.15 1.32 1.50 1.36 1.30 0.78 0.65 0.78 1.04 1.14 0.88 0.31 0.26 0.60 0.71 0.76 0.49 0.59 0.78 0.82 0.46 0.36 0.31 0.34 0.29 0.45 0.31 0.13 0.02 0.00 0.00 0.00 0.00 0.00 0.00 0.00 0.00 0.00 0.01 0.01 0.06 0.15
0.37 0.37 0.37 0.34 0.36 0.43 0.52 0.61 0.69 0.82 1.22 1.76 1.97 2.07 1.88 1.22 1.09 1.05 1.36 1.46 1.23 0.94 0.65 0.33 0.21 0.47 0.79 0.57 0.71 0.79 0.63 0.80 0.83 0.38 0.29 0.38 0.52 0.36 0.18 0.08 0.01 0.00 0.00 0.00 0.01 0.01 0.01 0.02 0.02 0.05 0.12 0.14 0.13 0.11
0.32 0.30 0.30 0.31 0.30 0.31 0.37 0.38 0.58 0.99 1.96 2.65 2.75 2.22 1.31 1.15 1.25 1.50 1.54 1.16 0.68 0.36 0.23 0.25 0.24 0.46 0.83 0.64 0.65 0.98 1.13 0.64 0.41 0.47 0.42 0.36 0.24 0.22 0.18 0.14 0.08 0.02 0.01 0.00 0.00 0.01 0.01 0.06 0.13 0.16 0.15 0.11 0.08 0.03
0.31 0.26 0.27 0.19 0.09 0.12 0.24 0.35 0.52 0.83 1.41 2.10 2.07 1.46 1.44 1.61 1.50 1.52 1.21 0.71 0.25 0.11 0.09 0.16 0.14 0.31 0.88 1.06 0.63 1.07 0.99 0.96 0.62 0.20 0.27 0.26 0.16 0.07 0.09 0.10 0.12 0.13 0.06 0.04 0.05 0.10 0.15 0.18 0.16 0.12 0.08 0.05 0.04 0.06
0.33 0.27 0.26 0.19 0.11 0.10 0.16 0.37 0.56 0.83 1.45 1.74 1.67 1.91 2.06 2.14 1.86 1.45 0.66 0.33 0.18 0.11 0.10 0.11 0.16 0.26 0.51 0.81 1.03 0.66 0.85 0.52 0.62 0.76 0.43 0.28 0.12 0.10 0.11 0.12 0.15 0.19 0.22 0.26 0.28 0.29 0.26 0.23 0.22 0.20 0.26 0.38 0.44 0.56
0.31 0.26 0.23 0.24 0.28 0.33 0.36 0.41 0.59 1.17 1.36 1.18 1.34 1.64 1.58 1.53 1.21 0.83 0.36 0.19 0.15 0.11 0.09 0.11 0.13 0.17 0.32 0.60 0.96 0.97 1.00 0.72 0.76 0.89 0.41 0.35 0.39 0.28 0.15 0.12 0.12 0.17 0.23 0.32 0.48 0.52 0.53 0.55 0.67 0.78 0.78 0.79 0.65 0.65
0.21 0.19 0.25 0.36 0.35 0.42 0.53 0.63 0.80 0.76 0.85 0.91 0.94 1.02 0.88 0.86 0.69 0.47 0.37 0.26 0.24 0.23 0.25 0.36 0.50 0.44 0.51 0.81 0.83 0.76 0.76 0.68 0.49 0.47 0.53 0.52 0.35 0.19 0.20 0.21 0.23 0.28 0.36 0.47 0.53 0.53 0.57 0.52 0.43 0.54 0.57 0.50 0.36 0.36
0.37 0.24 0.22 0.30 0.34 0.44 0.58 0.69 0.64 0.59 0.74 0.56 0.53 0.54 0.53 0.53 0.56 0.53 0.49 0.43 0.44 0.54 0.56 0.72 0.80 0.77 0.91 0.65 0.55 0.61 0.48 0.49 0.56 0.38 0.29 0.27 0.30 0.34 0.35 0.40 0.46 0.52 0.55 0.51 0.49 0.43 0.41 0.35 0.25 0.29 0.31 0.26 0.25 0.18
0.66 0.28 0.18 0.18 0.23 0.28 0.34 0.47 0.44 0.44 0.49 0.41 0.61 0.64 0.56 0.51 0.52 0.55 0.50 0.47 0.45 0.59 0.54 0.42 0.40 0.54 0.57 0.43 0.44 0.44 0.60 0.59 0.50 0.44 0.39 0.36 0.37 0.46 0.51 0.54 0.60 0.61 0.52 0.40 0.34 0.31 0.30 0.25 0.14 0.09 0.14 0.19 0.11 0.09
1.03 0.46 0.31 0.31 0.26 0.29 0.40 0.40 0.26 0.15 0.26 0.50 0.58 0.77 0.65 0.78 0.68 0.55 0.54 0.48 0.35 0.38 0.32 0.31 0.24 0.22 0.30 0.31 0.38 0.46 0.55 0.55 0.54 0.61 0.71 0.70 0.61 0.64 0.66 0.65 0.67 0.54 0.40 0.41 0.35 0.35 0.31 0.23 0.16 0.19 0.15 0.11 0.05 0.03
0.60 0.41 0.34 0.29 0.19 0.19 0.25 0.16 0.07 0.17 0.49 0.53 0.62 0.58 0.50 0.60 0.68 0.68 0.58 0.51 0.40 0.27 0.26 0.34 0.36 0.40 0.46 0.52 0.62 0.61 0.72 0.61 0.65 0.76 0.81 0.87 0.81 0.74 0.75 0.68 0.58 0.48 0.40 0.41 0.31 0.26 0.24 0.19 0.18 0.15 0.11 0.06 0.08 0.06
0.83 0.65 0.34 0.21 0.05 0.02 0.01 0.06 0.01 0.09 0.36 0.46 0.54 0.36 0.27 0.43 0.36 0.19 0.15 0.13 0.13 0.12 0.25 0.37 0.59 0.70 0.79 0.84 0.84 0.80 0.86 0.70 0.54 0.45 0.62 0.76 0.85 0.63 0.64 0.51 0.47 0.43 0.31 0.29 0.26 0.22 0.16 0.12 0.12 0.09 0.07 0.08 0.09 0.08
0.71 0.76 0.41 0.15 0.04 0.00 0.01 0.02 0.05 0.07 0.13 0.27 0.26 0.09 0.17 0.09 0.03 0.02 0.01 0.00 0.04 0.24 0.51 0.70 0.70 0.76 0.81 0.79 0.71 0.59 0.60 0.49 0.48 0.35 0.42 0.50 0.66 0.46 0.46 0.46 0.37 0.30 0.24 0.24 0.19 0.20 0.15 0.16 0.13 0.10 0.11 0.07 0.06 0.06
0.41 0.46 0.39 0.20 0.14 0.01 0.02 0.02 0.06 0.08 0.05 0.11 0.07 0.05 0.09 0.08 0.05 0.02 0.00 0.03 0.24 0.47 0.60 0.61 0.58 0.56 0.51 0.57 0.66 0.58 0.65 0.45 0.39 0.34 0.37 0.33 0.35 0.36 0.38 0.42 0.27 0.26 0.23 0.23 0.17 0.14 0.11 0.09 0.09 0.07 0.06 0.05 0.05 0.06
0.38 0.41 0.41 0.34 0.19 0.05 0.01 0.00 0.00 0.02 0.03 0.04 0.03 0.02 0.04 0.05 0.05 0.01 0.04 0.12 0.38 0.58 0.52 0.41 0.47 0.46 0.46 0.56 0.37 0.39 0.50 0.37 0.33 0.37 0.37 0.32 0.30 0.30 0.24 0.23 0.19 0.15 0.13 0.13 0.12 0.10 0.09 0.07 0.05 0.03 0.02 0.05 0.09 0.09
0.37 0.38 0.35 0.31 0.18 0.11 0.04 0.02 0.01 0.02 0.01 0.03 0.02 0.05 0.08 0.06 0.02 0.02 0.08 0.21 0.40 0.31 0.28 0.40 0.34 0.32 0.27 0.21 0.25 0.32 0.44 0.27 0.24 0.26 0.25 0.12 0.10 0.12 0.09 0.10 0.09 0.09 0.10 0.08 0.06 0.04 0.03 0.03 0.04 0.05 0.07 0.09 0.08 0.10
0.30 0.29 0.24 0.16 0.06 0.03 0.02 0.03 0.04 0.03 0.03 0.03 0.04 0.06 0.05 0.03 0.02 0.05 0.10 0.27 0.21 0.22 0.24 0.24 0.19 0.21 0.23 0.30 0.30 0.26 0.19 0.12 0.10 0.10 0.16 0.09 0.08 0.06 0.05 0.06 0.05 0.06 0.05 0.04 0.03 0.04 0.05 0.07 0.08 0.07 0.06 0.08 0.11 0.13
0.16 0.11 0.10 0.08 0.04 0.04 0.04 0.04 0.04 0.05 0.05 0.07 0.10 0.10 0.05 0.06 0.05 0.11 0.19 0.30 0.22 0.25 0.28 0.27 0.22 0.14 0.14 0.14 0.14 0.12 0.10 0.08 0.03 0.03 0.07 0.05 0.07 0.07 0.06 0.05 0.04 0.04 0.03 0.07 0.13 0.12 0.07 0.04 0.05 0.07 0.08 0.09 0.13 0.16
0.08 0.05 0.02 0.03 0.05 0.08 0.09 0.07 0.10 0.10 0.11 0.15 0.13 0.10 0.15 0.12 0.11 0.21 0.23 0.21 0.19 0.23 0.19 0.15 0.08 0.07 0.09 0.09 0.06 0.04 0.02 0.01 0.01 0.02 0.03 0.03 0.03 0.04 0.08 0.15 0.17 0.15 0.09 0.09 0.13 0.15 0.17 0.14 0.12 0.11 0.13 0.11 0.13 0.21
0.05 0.05 0.09 0.10 0.14 0.14 0.14 0.13 0.15 0.15 0.15 0.15 0.15 0.11 0.13 0.12 0.20 0.26 0.25 0.27 0.18 0.11 0.06 0.03 0.02 0.02 0.03 0.05 0.06 0.04 0.03 0.02 0.01 0.01 0.02 0.06 0.06 0.09 0.10 0.11 0.12 0.09 0.07 0.10 0.11 0.13 0.18 0.21 0.20 0.17 0.18 0.20 0.19 0.16
0.09 0.08 0.08 0.09 0.10 0.08 0.10 0.11 0.13 0.13 0.14 0.13 0.09 0.07 0.09 0.14 0.28 0.26 0.25 0.19 0.15 0.08 0.06 0.06 0.10 0.06 0.04 0.02 0.01 0.03 0.03 0.05 0.05 0.04 0.03 0.04 0.10 0.13 0.09 0.08 0.08 0.08 0.09 0.08 0.08 0.13 0.16 0.18 0.17 0.17 0.23 0.25 0.21 0.23
0.05 0.05 0.04 0.04 0.04 0.09 0.12 0.08 0.10 0.08 0.04 0.03 0.03 0.05 0.08 0.19 0.30 0.23 0.16 0.13 0.11 0.11 0.11 0.09 0.10 0.06 0.06 0.04 0.03 0.04 0.10 0.08 0.10 0.14 0.13 0.11 0.11 0.11 0.09 0.09 0.09 0.09 0.09 0.08 0.07 0.06 0.06 0.05 0.05 0.12 0.13 0.13 0.20 0.25
0.02 0.02 0.02 0.03 0.06 0.10 0.07 0.05 0.07 0.07 0.06 0.05 0.05 0.05 0.13 0.16 0.17 0.12 0.09 0.13 0.07 0.06 0.05 0.04 0.04 0.05 0.05 0.06 0.09 0.10 0.13 0.12 0.12 0.13 0.13 0.12 0.11 0.10 0.09 0.07 0.07 0.07 0.07 0.07 0.07 0.08 0.08 0.07 0.10 0.12 0.09 0.09 0.13 0.14
0.02 0.03 0.02 0.02 0.08 0.06 0.07 0.14 0.10 0.10 0.09 0.06 0.09 0.06 0.11 0.10 0.09 0.13 0.11 0.08 0.06 0.07 0.08 0.10 0.11 0.13 0.15 0.16 0.15 0.14 0.14 0.14 0.12 0.12 0.12 0.12 0.11 0.09 0.06 0.05 0.06 0.07 0.07 0.06 0.07 0.08 0.09 0.08 0.09 0.07 0.10 0.09 0.09 0.09
0.02 0.02 0.02 0.02 0.05 0.07 0.06 0.08 0.04 0.04 0.05 0.06 0.10 0.11 0.12 0.11 0.17 0.23 0.17 0.13 0.17 0.18 0.17 0.18 0.20 0.21 0.21 0.17 0.14 0.14 0.13 0.12 0.11 0.10 0.11 0.09 0.07 0.04 0.04 0.05 0.05 0.05 0.06 0.06 0.07 0.09 0.08 0.07 0.07 0.07 0.07 0.07 0.08 0.07

GFSWCAN_prec_precacc_075.txt.gz
Total_Precipitation_Accumulation
0.87 0.71 0.57 0.40 0.45 0.39 0.43 0.57 0.57 0.57 0.49 0.49 0.55 0.44 0.32 0.42 0.81 1.19 1.27 0.85 1.99 1.06 0.22 0.25 0.19 0.05 0.01 0.21 0.42 0.17 0.27 0.31 0.36 0.26 0.13 0.06 0.02 0.01 0.01 0.01 0.07 0.03 0.05 0.06 0.13 0.11 0.02 0.00 0.02 0.05 0.05 0.03 0.04 0.03
1.20 0.90 0.50 0.38 0.38 0.42 0.45 0.61 0.58 0.59 0.44 0.41 0.51 0.47 0.40 0.50 1.02 1.09 1.03 0.94 1.53 1.33 0.59 0.24 0.27 0.10 0.02 0.06 0.28 0.07 0.14 0.14 0.14 0.16 0.11 0.08 0.03 0.01 0.00 0.00 0.01 0.06 0.04 0.05 0.07 0.03 0.00 0.00 0.01 0.03 0.03 0.05 0.03 0.03
1.20 1.06 0.78 0.47 0.37 0.43 0.56 0.63 0.56 0.63 0.53 0.48 0.61 0.59 0.49 0.69 1.14 1.04 0.84 0.96 2.12 2.02 0.88 0.38 0.34 0.25 0.11 0.05 0.14 0.17 0.08 0.05 0.07 0.14 0.16 0.16 0.10 0.02 0.01 0.01 0.02 0.04 0.04 0.09 0.12 0.03 0.03 0.06 0.03 0.02 0.03 0.04 0.06 0.14
1.14 1.02 0.90 0.64 0.45 0.41 0.44 0.48 0.44 0.56 0.64 0.64 0.80 0.76 0.66 1.05 1.07 1.02 0.95 1.09 1.67 1.78 1.39 0.48 0.23 0.29 0.19 0.08 0.07 0.09 0.07 0.07 0.11 0.19 0.30 0.30 0.22 0.10 0.07 0.02 0.07 0.05 0.04 0.06 0.10 0.05 0.07 0.09 0.16 0.14 0.13 0.19 0.16 0.05
0.78 0.85 0.73 0.64 0.59 0.47 0.40 0.44 0.48 0.60 0.78 0.78 1.08 0.85 1.00 1.09 1.10 1.13 1.04 1.28 1.18 1.39 1.20 0.65 0.35 0.34 0.50 0.26 0.21 0.15 0.13 0.22 0.31 0.33 0.29 0.18 0.07 0.08 0.08 0.09 0.10 0.02 0.01 0.05 0.05 0.06 0.13 0.17 0.18 0.23 0.18 0.06 0.04 0.06
0.69 0.65 0.68 0.56 0.53 0.61 0.54 0.57 0.62 0.65 0.63 0.86 0.94 0.90 1.03 1.04 1.28 1.41 1.80 1.25 1.29 1.16 1.10 0.97 0.48 0.37 0.53 0.56 0.41 0.44 0.33 0.31 0.40 0.31 0.20 0.09 0.05 0.16 0.15 0.06 0.01 0.01 0.02 0.05 0.07 0.07 0.10 0.15 0.12 0.05 0.01 0.01 0.01 0.00
0.79 0.63 0.61 0.58 0.59 0.67 0.81 0.71 0.61 0.55 0.66 0.87 0.75 0.99 1.00 0.97 1.00 1.03 1.03 0.90 1.07 1.18 1.21 0.65 0.68 0.47 0.59 0.53 0.64 0.39 0.41 0.39 0.48 0.53 0.26 0.13 0.08 0.25 0.32 0.15 0.01 0.01 0.03 0.03 0.02 0.04 0.05 0.03 0.02 0.01 0.01 0.01 0.00 0.00
0.82 0.62 0.49 0.50 0.53 0.55 0.64 0.78 0.75 0.71 0.74 0.66 0.88 1.12 1.09 1.19 1.14 0.74 0.40 0.47 0.88 1.23 0.89 0.39 0.49 0.63 0.75 0.60 0.51 0.58 0.53 0.49 0.52 0.61 0.37 0.17 0.19 0.30 0.31 0.09 0.02 0.00 0.00 0.02 0.02 0.02 0.03 0.02 0.01 0.02 0.03 0.03 0.02 0.02
0.53 0.44 0.42 0.44 0.50 0.54 0.55 0.65 0.75 0.72 0.65 0.83 1.24 1.46 1.76 1.70 1.51 0.91 0.79 0.80 1.08 1.18 0.89 0.31 0.27 0.61 0.72 0.76 0.49 0.59 0.78 0.82 0.46 0.37 0.32 0.35 0.30 0.49 0.35 0.14 0.06 0.01 0.00 0.00 0.01 0.03 0.03 0.03 0.02 0.02 0.03 0.03 0.06 0.15
0.40 0.38 0.38 0.36 0.41 0.50 0.61 0.66 0.71 0.88 1.30 1.85 2.12 2.32 2.25 1.53 1.32 1.20 1.43 1.47 1.23 0.94 0.65 0.33 0.21 0.47 0.79 0.57 0.71 0.79 0.63 0.80 0.83 0.38 0.29 0.38 0.54 0.38 0.19 0.12 0.10 0.10 0.07 0.02 0.02 0.03 0.03 0.04 0.04 0.07 0.14 0.16 0.14 0.11
0.33 0.31 0.30 0.31 0.30 0.31 0.38 0.41 0.61 1.01 1.98 2.66 2.79 2.40 1.55 1.25 1.27 1.50 1.54 1.16 0.68 0.36 0.23 0.25 0.24 0.46 0.83 0.64 0.65 0.98 1.13 0.64 0.41 0.47 0.43 0.39 0.26 0.24 0.19 0.20 0.20 0.15 0.14 0.10 0.02 0.01 0.02 0.07 0.14 0.16 0.15 0.11 0.08 0.03
0.32 0.26 0.27 0.19 0.09 0.12 0.24 0.35 0.53 0.83 1.41 2.10 2.08 1.47 1.44 1.61 1.50 1.52 1.21 0.71 0.25 0.11 0.09 0.16 0.14 0.31 0.88 1.06 0.63 1.07 1.01 0.98 0.62 0.22 0.31 0.31 0.19 0.08 0.09 0.10 0.13 0.20 0.21 0.14 0.09 0.11 0.16 0.18 0.16 0.12 0.08 0.05 0.04 0.06
0.33 0.27 0.26 0.19 0.11 0.10 0.16 0.37 0.56 0.83 1.45 1.74 1.67 1.91 2.06 2.14 1.86 1.45 0.66 0.33 0.19 0.13 0.11 0.11 0.16 0.26 0.51 0.81 1.03 0.66 0.90 0.59 0.78 0.84 0.48 0.30 0.13 0.10 0.11 0.13 0.16 0.20 0.24 0.32 0.33 0.31 0.26 0.24 0.22 0.20 0.27 0.39 0.45 0.58
0.31 0.26 0.23 0.24 0.28 0.33 0.36 0.41 0.59 1.17 1.36 1.18 1.34 1.64 1.58 1.53 1.22 0.85 0.37 0.20 0.17 0.13 0.10 0.11 0.13 0.17 0.32 0.60 0.96 0.99 1.03 0.78 0.87 0.92 0.44 0.37 0.41 0.29 0.16 0.13 0.13 0.19 0.24 0.34 0.49 0.53 0.54 0.56 0.70 0.82 0.83 0.86 0.72 0.74
0.21 0.19 0.25 0.36 0.35 0.42 0.53 0.63 0.80 0.76 0.85 0.91 0.94 1.02 0.89 0.88 0.70 0.49 0.38 0.27 0.26 0.25 0.26 0.36 0.50 0.44 0.51 0.81 0.84 0.78 0.77 0.69 0.50 0.48 0.56 0.55 0.37 0.21 0.22 0.22 0.25 0.30 0.39 0.49 0.55 0.55 0.60 0.56 0.46 0.60 0.65 0.59 0.43 0.44
0.37 0.24 0.22 0.30 0.34 0.44 0.58 0.69 0.64 0.59 0.74 0.56 0.54 0.55 0.53 0.53 0.56 0.53 0.49 0.44 0.44 0.55 0.57 0.75 0.83 0.78 0.92 0.65 0.55 0.61 0.48 0.50 0.58 0.40 0.33 0.31 0.34 0.38 0.38 0.44 0.50 0.57 0.59 0.55 0.54 0.47 0.45 0.40 0.30 0.36 0.39 0.34 0.33 0.25
0.66 0.28 0.18 0.18 0.23 0.28 0.34 0.47 0.44 0.44 0.49 0.41 0.61 0.65 0.57 0.52 0.53 0.56 0.51 0.48 0.46 0.60 0.55 0.44 0.41 0.56 0.60 0.45 0.46 0.46 0.62 0.62 0.53 0.47 0.42 0.40 0.41 0.51 0.58 0.60 0.66 0.67 0.58 0.47 0.41 0.37 0.38 0.34 0.22 0.15 0.21 0.28 0.18 0.16
1.03 0.46 0.31 0.31 0.26 0.29 0.40 0.40 0.26 0.15 0.26 0.51 0.59 0.78 0.66 0.79 0.69 0.55 0.55 0.48 0.36 0.38 0.32 0.32 0.25 0.22 0.31 0.32 0.39 0.48 0.57 0.57 0.55 0.63 0.73 0.74 0.66 0.68 0.69 0.70 0.73 0.60 0.47 0.48 0.42 0.42 0.38 0.30 0.21 0.26 0.21 0.17 0.09 0.08
0.60 0.41 0.34 0.29 0.19 0.19 0.25 0.16 0.07 0.18 0.50 0.54 0.63 0.59 0.50 0.61 0.69 0.69 0.59 0.51 0.40 0.27 0.26 0.34 0.36 0.40 0.47 0.53 0.63 0.62 0.73 0.62 0.65 0.77 0.83 0.90 0.85 0.78 0.80 0.73 0.64 0.55 0.46 0.47 0.37 0.32 0.31 0.25 0.23 0.19 0.15 0.09 0.10 0.08
0.83 0.65 0.34 0.21 0.05 0.02 0.01 0.06 0.01 0.09 0.38 0.48 0.55 0.37 0.28 0.44 0.36 0.19 0.15 0.13 0.13 0.12 0.25 0.37 0.60 0.72 0.80 0.86 0.86 0.82 0.86 0.70 0.55 0.46 0.63 0.78 0.88 0.67 0.70 0.57 0.53 0.49 0.37 0.34 0.31 0.26 0.19 0.15 0.14 0.11 0.08 0.08 0.10 0.08
0.71 0.76 0.41 0.15 0.04 0.00 0.01 0.02 0.05 0.08 0.14 0.30 0.27 0.10 0.17 0.09 0.03 0.02 0.01 0.00 0.04 0.24 0.52 0.71 0.72 0.77 0.83 0.81 0.73 0.60 0.61 0.50 0.49 0.35 0.42 0.51 0.68 0.48 0.48 0.49 0.41 0.32 0.26 0.26 0.21 0.22 0.16 0.16 0.14 0.10 0.11 0.07 0.06 0.06
0.41 0.46 0.39 0.20 0.14 0.01 0.02 0.02 0.07 0.09 0.05 0.11 0.07 0.05 0.09 0.08 0.05 0.02 0.00 0.03 0.25 0.48 0.61 0.62 0.59 0.57 0.52 0.58 0.67 0.59 0.67 0.46 0.40 0.35 0.39 0.34 0.37 0.38 0.40 0.44 0.29 0.28 0.24 0.24 0.18 0.14 0.11 0.09 0.09 0.07 0.06 0.05 0.05 0.06
0.38 0.41 0.41 0.34 0.19 0.05 0.01 0.00 0.00 0.03 0.03 0.04 0.03 0.02 0.04 0.05 0.05 0.01 0.04 0.13 0.40 0.61 0.53 0.42 0.47 0.46 0.47 0.58 0.38 0.40 0.51 0.37 0.34 0.38 0.39 0.34 0.32 0.32 0.26 0.25 0.20 0.16 0.13 0.13 0.12 0.10 0.09 0.07 0.05 0.03 0.02 0.05 0.09 0.09
0.37 0.38 0.35 0.31 0.18 0.11 0.04 0.02 0.01 0.02 0.01 0.03 0.02 0.05 0.08 0.06 0.02 0.02 0.09 0.22 0.43 0.32 0.28 0.41 0.34 0.32 0.27 0.21 0.25 0.33 0.46 0.28 0.25 0.27 0.27 0.14 0.11 0.14 0.10 0.10 0.09 0.09 0.10 0.08 0.06 0.04 0.03 0.03 0.04 0.05 0.07 0.09 0.08 0.10
0.30 0.29 0.24 0.16 0.06 0.03 0.02 0.03 0.04 0.03 0.03 0.03 0.04 0.07 0.05 0.03 0.02 0.05 0.10 0.28 0.22 0.23 0.25 0.24 0.19 0.21 0.24 0.30 0.30 0.27 0.20 0.13 0.10 0.11 0.17 0.10 0.08 0.06 0.05 0.06 0.05 0.06 0.05 0.04 0.03 0.04 0.05 0.07 0.08 0.07 0.06 0.08 0.11 0.13
0.16 0.11 0.10 0.08 0.04 0.04 0.04 0.04 0.04 0.05 0.05 0.07 0.11 0.10 0.05 0.06 0.05 0.12 0.19 0.31 0.22 0.25 0.28 0.27 0.23 0.14 0.14 0.14 0.14 0.13 0.10 0.09 0.04 0.03 0.07 0.06 0.07 0.07 0.06 0.05 0.04 0.04 0.03 0.07 0.13 0.12 0.07 0.04 0.05 0.07 0.08 0.09 0.13 0.16
0.08 0.05 0.02 0.03 0.05 0.08 0.09 0.07 0.10 0.10 0.11 0.15 0.13 0.10 0.15 0.12 0.11 0.22 0.23 0.22 0.19 0.24 0.19 0.15 0.08 0.07 0.09 0.09 0.06 0.04 0.02 0.01 0.01 0.02 0.03 0.03 0.03 0.04 0.08 0.15 0.17 0.16 0.09 0.09 0.13 0.15 0.17 0.14 0.12 0.11 0.13 0.11 0.13 0.21
0.05 0.05 0.09 0.10 0.14 0.14 0.14 0.13 0.15 0.16 0.15 0.15 0.15 0.11 0.13 0.12 0.20 0.27 0.25 0.27 0.19 0.11 0.06 0.03 0.02 0.02 0.03 0.05 0.06 0.04 0.03 0.02 0.01 0.01 0.02 0.06 0.06 0.09 0.10 0.11 0.12 0.09 0.07 0.10 0.11 0.13 0.18 0.21 0.20 0.17 0.18 0.20 0.19 0.16
0.09 0.08 0.08 0.09 0.10 0.08 0.10 0.11 0.13 0.13 0.14 0.13 0.09 0.08 0.10 0.15 0.29 0.26 0.26 0.19 0.15 0.08 0.06 0.06 0.10 0.06 0.04 0.02 0.01 0.03 0.03 0.05 0.05 0.04 0.03 0.04 0.10 0.13 0.09 0.08 0.08 0.08 0.09 0.08 0.08 0.13 0.16 0.18 0.17 0.17 0.23 0.25 0.21 0.23
0.05 0.05 0.04 0.04 0.05 0.09 0.12 0.08 0.10 0.08 0.04 0.03 0.03 0.06 0.08 0.20 0.32 0.24 0.17 0.13 0.11 0.11 0.11 0.09 0.10 0.06 0.06 0.04 0.03 0.04 0.10 0.08 0.10 0.14 0.13 0.11 0.11 0.11 0.09 0.09 0.09 0.09 0.09 0.08 0.07 0.06 0.06 0.05 0.05 0.12 0.13 0.13 0.20 0.25
0.02 0.02 0.02 0.03 0.07 0.10 0.07 0.05 0.07 0.07 0.06 0.05 0.05 0.05 0.13 0.16 0.18 0.13 0.11 0.14 0.07 0.06 0.05 0.04 0.04 0.05 0.05 0.06 0.09 0.10 0.13 0.12 0.12 0.13 0.13 0.12 0.11 0.10 0.09 0.07 0.07 0.07 0.07 0.07 0.07 0.08 0.08 0.07 0.10 0.12 0.09 0.09 0.13 0.14
0.02 0.03 0.02 0.02 0.08 0.07 0.07 0.14 0.10 0.10 0.09 0.06 0.09 0.06 0.11 0.10 0.09 0.13 0.11 0.09 0.06 0.07 0.08 0.10 0.11 0.13 0.15 0.16 0.15 0.14 0.14 0.14 0.12 0.12 0.12 0.12 0.11 0.09 0.06 0.05 0.06 0.07 0.07 0.06 0.07 0.08 0.09 0.08 0.09 0.07 0.10 0.09 0.09 0.09
0.02 0.02 0.02 0.02 0.05 0.07 0.06 0.09 0.04 0.04 0.06 0.07 0.11 0.11 0.12 0.11 0.17 0.23 0.17 0.13 0.17 0.18 0.17 0.18 0.20 0.21 0.21 0.17 0.14 0.14 0.13 0.12 0.11 0.10 0.11 0.09 0.07 0.04 0.04 0.05 0.05 0.05 0.06 0.06 0.07 0.09 0.08 0.07 0.07 0.07 0.07 0.07 0.08 0.07

GFSWCAN_prec_precacc_078.txt.gz
Total_Precipitation_Accumulation
0.87 0.72 0.58 0.43 0.50 0.44 0.47 0.59 0.58 0.59 0.51 0.52 0.58 0.46 0.34 0.44 0.84 1.23 1.30 0.91 2.17 1.18 0.29 0.27 0.19 0.05 0.01 0.21 0.42 0.17 0.28 0.31 0.36 0.27 0.15 0.06 0.02 0.01 0.01 0.02 0.08 0.05 0.09 0.08 0.15 0.12 0.03 0.01 0.03 0.08 0.06 0.03 0.04 0.03
1.20 0.91 0.53 0.41 0.40 0.43 0.46 0.62 0.59 0.59 0.45 0.43 0.55 0.51 0.45 0.54 1.05 1.15 1.06 0.98 1.57 1.37 0.64 0.29 0.29 0.10 0.02 0.06 0.28 0.07 0.15 0.14 0.14 0.16 0.11 0.08 0.03 0.01 0.00 0.00 0.01 0.06 0.05 0.06 0.08 0.04 0.01 0.01 0.02 0.05 0.05 0.05 0.04 0.03
1.20 1.07 0.79 0.47 0.38 0.44 0.58 0.65 0.57 0.65 0.55 0.50 0.63 0.64 0.55 0.78 1.20 1.16 0.88 0.98 2.18 2.09 0.90 0.43 0.37 0.25 0.11 0.05 0.14 0.17 0.08 0.05 0.07 0.14 0.16 0.16 0.10 0.02 0.01 0.01 0.02 0.04 0.04 0.10 0.13 0.03 0.04 0.06 0.03 0.02 0.04 0.04 0.06 0.14
1.16 1.04 0.91 0.64 0.47 0.43 0.46 0.50 0.46 0.57 0.66 0.70 0.84 0.80 0.74 1.16 1.19 1.17 1.05 1.10 1.69 1.80 1.40 0.48 0.23 0.29 0.19 0.08 0.07 0.09 0.07 0.07 0.11 0.19 0.30 0.30 0.22 0.10 0.07 0.02 0.07 0.05 0.04 0.06 0.10 0.05 0.07 0.10 0.17 0.14 0.13 0.19 0.16 0.06
0.83 0.86 0.74 0.64 0.60 0.48 0.41 0.45 0.50 0.63 0.81 0.86 1.15 0.91 1.08 1.23 1.25 1.32 1.10 1.29 1.18 1.39 1.20 0.66 0.37 0.35 0.52 0.27 0.22 0.15 0.13 0.22 0.31 0.34 0.29 0.18 0.07 0.08 0.08 0.09 0.10 0.02 0.01 0.05 0.05 0.06 0.13 0.17 0.18 0.23 0.18 0.06 0.04 0.06
0.70 0.66 0.69 0.56 0.54 0.62 0.56 0.58 0.63 0.68 0.68 0.95 1.01 1.00 1.12 1.20 1.58 1.54 1.95 1.32 1.30 1.17 1.13 1.02 0.59 0.40 0.56 0.62 0.46 0.49 0.36 0.34 0.42 0.32 0.20 0.09 0.06 0.16 0.15 0.06 0.01 0.01 0.02 0.05 0.07 0.07 0.10 0.16 0.12 0.05 0.02 0.02 0.01 0.00
0.80 0.66 0.62 0.60 0.59 0.68 0.83 0.72 0.63 0.58 0.70 0.93 0.83 1.09 1.10 1.10 1.06 1.04 1.09 0.93 1.08 1.19 1.35 0.93 0.76 0.56 0.63 0.71 0.74 0.45 0.46 0.44 0.51 0.54 0.27 0.14 0.11 0.27 0.32 0.15 0.01 0.01 0.03 0.03 0.02 0.04 0.06 0.04 0.02 0.02 0.03 0.02 0.00 0.01
0.83 0.64 0.52 0.52 0.55 0.56 0.66 0.80 0.77 0.74 0.77 0.70 0.95 1.19 1.13 1.22 1.15 0.75 0.41 0.48 0.89 1.31 1.16 0.81 0.60 0.79 0.80 0.77 0.62 0.64 0.56 0.51 0.53 0.63 0.39 0.20 0.22 0.32 0.32 0.09 0.02 0.00 0.00 0.02 0.02 0.02 0.03 0.03 0.02 0.03 0.04 0.05 0.03 0.02
0.53 0.45 0.45 0.47 0.52 0.55 0.58 0.69 0.79 0.77 0.73 0.93 1.33 1.51 1.84 1.80 1.64 0.94 0.81 0.83 1.17 1.34 1.13 0.51 0.32 0.71 0.75 0.78 0.50 0.59 0.78 0.82 0.46 0.37 0.33 0.37 0.32 0.52 0.37 0.14 0.06 0.01 0.00 0.01 0.01 0.03 0.03 0.04 0.04 0.04 0.06 0.05 0.08 0.16
0.40 0.38 0.38 0.40 0.46 0.54 0.62 0.67 0.75 0.93 1.38 1.94 2.21 2.50 2.53 1.84 1.44 1.43 1.72 1.66 1.42 1.06 0.77 0.41 0.21 0.47 0.79 0.57 0.71 0.79 0.63 0.80 0.83 0.38 0.29 0.39 0.56 0.40 0.20 0.13 0.10 0.10 0.08 0.03 0.03 0.03 0.03 0.05 0.05 0.08 0.15 0.17 0.15 0.13
0.33 0.31 0.30 0.32 0.34 0.34 0.40 0.41 0.62 1.05 2.07 2.82 3.00 2.70 1.92 1.44 1.42 1.61 1.60 1.22 0.73 0.40 0.26 0.25 0.24 0.46 0.83 0.64 0.65 0.98 1.13 0.64 0.41 0.47 0.44 0.41 0.28 0.25 0.19 0.20 0.20 0.15 0.14 0.14 0.10 0.05 0.03 0.07 0.14 0.16 0.15 0.11 0.08 0.03
0.32 0.26 0.27 0.20 0.10 0.13 0.24 0.36 0.54 0.90 1.49 2.14 2.11 1.54 1.49 1.64 1.50 1.52 1.21 0.71 0.25 0.12 0.09 0.16 0.14 0.31 0.88 1.06 0.63 1.07 1.01 0.98 0.63 0.24 0.34 0.33 0.20 0.08 0.09 0.10 0.13 0.21 0.21 0.17 0.19 0.26 0.30 0.24 0.18 0.13 0.08 0.05 0.04 0.07
0.33 0.27 0.26 0.19 0.11 0.10 0.16 0.37 0.56 0.84 1.46 1.75 1.67 1.91 2.06 2.14 1.86 1.45 0.66 0.34 0.20 0.14 0.11 0.11 0.16 0.26 0.51 0.81 1.03 0.67 0.92 0.65 0.85 0.89 0.50 0.31 0.14 0.11 0.12 0.13 0.16 0.20 0.25 0.33 0.36 0.38 0.37 0.33 0.26 0.22 0.27 0.40 0.46 0.59
0.31 0.26 0.23 0.24 0.28 0.33 0.36 0.41 0.59 1.17 1.36 1.18 1.34 1.64 1.58 1.54 1.23 0.86 0.39 0.22 0.19 0.14 0.10 0.11 0.13 0.17 0.32 0.60 0.96 1.00 1.05 0.80 0.90 0.94 0.46 0.42 0.47 0.33 0.17 0.14 0.14 0.21 0.26 0.35 0.51 0.56 0.58 0.61 0.75 0.85 0.86 0.88 0.73 0.77
0.21 0.19 0.25 0.36 0.35 0.42 0.53 0.63 0.80 0.76 0.85 0.91 0.94 1.02 0.89 0.90 0.72 0.52 0.41 0.30 0.29 0.27 0.27 0.36 0.50 0.44 0.51 0.81 0.84 0.79 0.77 0.69 0.50 0.49 0.60 0.61 0.42 0.24 0.25 0.24 0.26 0.32 0.40 0.51 0.58 0.57 0.62 0.58 0.48 0.64 0.70 0.64 0.47 0.49
0.37 0.24 0.22 0.30 0.34 0.44 0.58 0.69 0.64 0.59 0.74 0.56 0.54 0.56 0.53 0.54 0.57 0.54 0.51 0.46 0.47 0.57 0.57 0.76 0.83 0.79 0.92 0.65 0.55 0.62 0.49 0.51 0.59 0.42 0.35 0.33 0.36 0.40 0.41 0.46 0.53 0.59 0.62 0.58 0.57 0.50 0.49 0.44 0.33 0.40 0.44 0.39 0.39 0.30
0.66 0.28 0.18 0.18 0.23 0.28 0.34 0.47 0.44 0.44 0.49 0.41 0.62 0.65 0.57 0.52 0.54 0.57 0.52 0.48 0.46 0.60 0.55 0.44 0.41 0.57 0.61 0.46 0.47 0.47 0.63 0.63 0.54 0.49 0.45 0.41 0.43 0.53 0.61 0.63 0.70 0.71 0.63 0.51 0.46 0.42 0.43 0.40 0.27 0.17 0.25 0.34 0.23 0.21
1.03 0.46 0.31 0.31 0.26 0.29 0.40 0.40 0.26 0.15 0.26 0.52 0.60 0.79 0.66 0.80 0.70 0.56 0.56 0.48 0.36 0.38 0.32 0.32 0.25 0.23 0.33 0.33 0.40 0.50 0.58 0.58 0.57 0.65 0.75 0.77 0.68 0.71 0.72 0.74 0.78 0.65 0.52 0.54 0.48 0.48 0.44 0.36 0.26 0.31 0.26 0.24 0.14 0.13
0.60 0.41 0.34 0.29 0.19 0.19 0.25 0.16 0.07 0.18 0.51 0.54 0.64 0.59 0.51 0.62 0.70 0.70 0.59 0.51 0.40 0.27 0.26 0.34 0.36 0.40 0.47 0.53 0.64 0.64 0.74 0.62 0.66 0.79 0.85 0.92 0.88 0.82 0.83 0.77 0.68 0.61 0.51 0.53 0.42 0.38 0.36 0.31 0.29 0.25 0.20 0.14 0.14 0.12
0.83 0.65 0.34 0.21 0.05 0.02 0.01 0.06 0.01 0.09 0.38 0.48 0.55 0.37 0.28 0.44 0.36 0.19 0.15 0.13 0.13 0.12 0.26 0.37 0.60 0.73 0.81 0.87 0.87 0.83 0.87 0.71 0.55 0.47 0.64 0.80 0.91 0.70 0.73 0.61 0.57 0.53 0.41 0.39 0.35 0.31 0.24 0.19 0.19 0.14 0.11 0.09 0.10 0.08
0.71 0.76 0.41 0.15 0.04 0.00 0.01 0.02 0.05 0.08 0.14 0.31 0.27 0.10 0.17 0.09 0.03 0.02 0.01 0.00 0.04 0.24 0.53 0.73 0.73 0.79 0.84 0.83 0.74 0.61 0.62 0.51 0.49 0.35 0.43 0.52 0.70 0.50 0.51 0.52 0.43 0.35 0.30 0.30 0.25 0.26 0.19 0.19 0.16 0.10 0.11 0.08 0.07 0.07
0.41 0.46 0.39 0.20 0.14 0.01 0.02 0.02 0.07 0.09 0.05 0.11 0.08 0.05 0.09 0.08 0.05 0.02 0.00 0.03 0.26 0.50 0.62 0.64 0.61 0.58 0.53 0.59 0.68 0.60 0.68 0.46 0.41 0.36 0.39 0.35 0.39 0.39 0.42 0.47 0.31 0.30 0.27 0.26 0.19 0.15 0.11 0.09 0.09 0.07 0.06 0.05 0.05 0.06
0.38 0.41 0.41 0.34 0.19 0.05 0.02 0.00 0.01 0.03 0.03 0.04 0.03 0.02 0.04 0.05 0.05 0.01 0.04 0.13 0.41 0.62 0.54 0.43 0.48 0.47 0.48 0.59 0.38 0.41 0.51 0.37 0.35 0.39 0.40 0.36 0.34 0.34 0.28 0.27 0.21 0.17 0.14 0.13 0.12 0.10 0.09 0.07 0.05 0.03 0.02 0.05 0.09 0.09
0.37 0.38 0.35 0.31 0.18 0.11 0.04 0.02 0.01 0.02 0.01 0.03 0.02 0.05 0.08 0.06 0.02 0.02 0.09 0.23 0.45 0.33 0.29 0.41 0.35 0.32 0.27 0.22 0.26 0.34 0.47 0.28 0.26 0.28 0.28 0.15 0.12 0.15 0.11 0.10 0.09 0.09 0.10 0.08 0.06 0.04 0.03 0.03 0.04 0.05 0.07 0.09 0.08 0.10
0.30 0.29 0.24 0.16 0.06 0.03 0.02 0.03 0.04 0.03 0.03 0.03 0.04 0.07 0.05 0.03 0.02 0.05 0.10 0.29 0.23 0.23 0.26 0.24 0.19 0.21 0.24 0.31 0.31 0.28 0.21 0.13 0.11 0.12 0.18 0.10 0.08 0.06 0.05 0.06 0.05 0.06 0.05 0.04 0.03 0.04 0.05 0.07 0.08 0.07 0.06 0.08 0.11 0.13
0.17 0.12 0.10 0.08 0.04 0.04 0.04 0.04 0.05 0.05 0.05 0.07 0.11 0.10 0.05 0.06 0.05 0.12 0.20 0.31 0.23 0.26 0.29 0.28 0.23 0.15 0.15 0.14 0.14 0.13 0.11 0.09 0.04 0.03 0.08 0.06 0.07 0.07 0.06 0.05 0.04 0.04 0.03 0.07 0.13 0.12 0.07 0.04 0.05 0.07 0.08 0.09 0.13 0.16
0.08 0.05 0.02 0.03 0.05 0.08 0.09 0.07 0.10 0.10 0.11 0.16 0.13 0.10 0.15 0.12 0.11 0.22 0.24 0.22 0.20 0.25 0.20 0.15 0.09 0.07 0.09 0.09 0.06 0.04 0.02 0.01 0.01 0.02 0.03 0.03 0.03 0.04 0.08 0.15 0.17 0.16 0.09 0.09 0.13 0.15 0.17 0.14 0.12 0.11 0.13 0.11 0.13 0.21
0.05 0.05 0.09 0.10 0.14 0.14 0.14 0.13 0.16 0.16 0.15 0.16 0.15 0.11 0.13 0.12 0.20 0.28 0.26 0.28 0.19 0.12 0.06 0.04 0.02 0.02 0.03 0.05 0.06 0.04 0.03 0.02 0.01 0.01 0.02 0.06 0.06 0.09 0.10 0.11 0.12 0.09 0.07 0.10 0.11 0.13 0.18 0.21 0.20 0.17 0.18 0.20 0.19 0.16
0.09 0.08 0.08 0.09 0.10 0.08 0.10 0.11 0.13 0.14 0.14 0.13 0.09 0.08 0.10 0.15 0.30 0.27 0.26 0.20 0.15 0.08 0.06 0.07 0.10 0.06 0.04 0.02 0.01 0.03 0.03 0.05 0.05 0.04 0.03 0.04 0.10 0.13 0.09 0.08 0.08 0.08 0.09 0.08 0.08 0.13 0.16 0.18 0.17 0.17 0.23 0.25 0.21 0.23
0.05 0.05 0.04 0.04 0.05 0.09 0.13 0.09 0.10 0.08 0.04 0.03 0.04 0.06 0.08 0.21 0.33 0.25 0.17 0.13 0.12 0.11 0.11 0.09 0.10 0.06 0.06 0.04 0.03 0.05 0.10 0.08 0.10 0.14 0.13 0.11 0.11 0.11 0.09 0.10 0.09 0.09 0.09 0.08 0.07 0.06 0.06 0.05 0.05 0.13 0.13 0.13 0.20 0.25
0.02 0.02 0.02 0.03 0.07 0.11 0.08 0.05 0.07 0.07 0.06 0.05 0.05 0.05 0.13 0.17 0.19 0.14 0.11 0.15 0.07 0.06 0.05 0.04 0.04 0.06 0.05 0.06 0.09 0.10 0.13 0.12 0.12 0.13 0.13 0.12 0.11 0.10 0.09 0.08 0.07 0.07 0.07 0.07 0.07 0.08 0.08 0.07 0.10 0.12 0.09 0.09 0.13 0.14
0.02 0.03 0.02 0.02 0.09 0.07 0.07 0.14 0.10 0.10 0.09 0.06 0.09 0.06 0.12 0.10 0.09 0.13 0.12 0.09 0.07 0.07 0.08 0.10 0.11 0.13 0.15 0.16 0.15 0.14 0.14 0.14 0.12 0.12 0.12 0.12 0.11 0.09 0.06 0.05 0.06 0.07 0.07 0.06 0.07 0.08 0.09 0.08 0.09 0.07 0.10 0.09 0.09 0.09
0.02 0.02 0.02 0.03 0.05 0.07 0.07 0.09 0.05 0.04 0.06 0.07 0.11 0.11 0.12 0.11 0.17 0.23 0.18 0.13 0.18 0.18 0.17 0.18 0.20 0.21 0.21 0.17 0.14 0.14 0.13 0.12 0.11 0.10 0.11 0.09 0.07 0.04 0.04 0.05 0.05 0.05 0.06 0.06 0.08 0.09 0.08 0.07 0.07 0.08 0.08 0.07 0.08 0.07

GFSWCAN_prec_precacc_081.txt.gz
Total_Precipitation_Accumulation
0.88 0.72 0.58 0.44 0.51 0.46 0.49 0.63 0.62 0.62 0.53 0.54 0.60 0.48 0.36 0.46 0.86 1.26 1.34 0.95 2.38 1.35 0.38 0.27 0.19 0.05 0.01 0.21 0.42 0.18 0.34 0.34 0.39 0.33 0.18 0.08 0.02 0.01 0.01 0.02 0.10 0.08 0.13 0.11 0.19 0.15 0.04 0.02 0.07 0.12 0.08 0.04 0.06 0.03
1.20 0.91 0.53 0.42 0.41 0.44 0.47 0.63 0.60 0.61 0.46 0.45 0.58 0.54 0.47 0.57 1.07 1.19 1.09 0.99 1.63 1.49 0.74 0.38 0.30 0.10 0.02 0.06 0.28 0.08 0.16 0.14 0.14 0.16 0.11 0.08 0.03 0.01 0.00 0.00 0.01 0.06 0.07 0.09 0.11 0.05 0.02 0.02 0.03 0.06 0.06 0.07 0.05 0.05
1.22 1.09 0.82 0.49 0.38 0.44 0.58 0.66 0.59 0.67 0.57 0.51 0.65 0.66 0.59 0.84 1.25 1.21 0.93 1.01 2.22 2.27 0.96 0.48 0.41 0.25 0.11 0.05 0.14 0.18 0.08 0.05 0.07 0.14 0.16 0.16 0.10 0.02 0.01 0.01 0.02 0.04 0.04 0.10 0.13 0.03 0.04 0.06 0.03 0.03 0.05 0.05 0.07 0.16
1.21 1.05 0.92 0.65 0.47 0.44 0.47 0.51 0.48 0.60 0.69 0.73 0.87 0.82 0.77 1.23 1.31 1.26 1.13 1.13 1.71 1.85 1.45 0.49 0.24 0.29 0.19 0.08 0.07 0.09 0.07 0.07 0.11 0.19 0.30 0.30 0.22 0.10 0.07 0.02 0.07 0.05 0.04 0.06 0.10 0.05 0.07 0.10 0.17 0.14 0.13 0.19 0.16 0.06
0.84 0.87 0.74 0.64 0.60 0.48 0.43 0.46 0.51 0.64 0.83 0.89 1.20 0.94 1.10 1.31 1.42 1.48 1.24 1.32 1.18 1.39 1.21 0.66 0.37 0.35 0.52 0.27 0.22 0.15 0.13 0.23 0.32 0.35 0.30 0.18 0.07 0.08 0.08 0.09 0.10 0.02 0.01 0.05 0.05 0.06 0.13 0.17 0.18 0.23 0.18 0.06 0.04 0.06
0.73 0.68 0.69 0.57 0.55 0.63 0.57 0.59 0.64 0.69 0.72 1.00 1.09 1.05 1.14 1.34 1.96 1.92 2.23 1.44 1.31 1.17 1.14 1.02 0.60 0.40 0.56 0.62 0.46 0.49 0.36 0.34 0.43 0.32 0.20 0.10 0.07 0.17 0.15 0.06 0.01 0.01 0.02 0.05 0.07 0.07 0.10 0.16 0.12 0.05 0.02 0.02 0.02 0.00
0.83 0.70 0.62 0.62 0.60 0.69 0.84 0.73 0.64 0.62 0.80 1.01 0.93 1.15 1.20 1.41 1.32 1.13 1.16 0.99 1.09 1.20 1.36 0.96 0.77 0.57 0.64 0.74 0.76 0.46 0.46 0.45 0.52 0.56 0.27 0.14 0.11 0.28 0.32 0.15 0.01 0.01 0.03 0.03 0.02 0.04 0.06 0.04 0.02 0.02 0.03 0.02 0.01 0.01
0.86 0.70 0.54 0.58 0.58 0.57 0.66 0.81 0.80 0.80 0.87 0.85 1.09 1.30 1.32 1.39 1.28 0.80 0.41 0.48 0.89 1.31 1.18 0.96 0.70 0.87 0.84 0.94 0.76 0.73 0.63 0.58 0.61 0.67 0.41 0.21 0.23 0.33 0.34 0.10 0.02 0.00 0.00 0.02 0.02 0.02 0.03 0.03 0.02 0.03 0.04 0.06 0.05 0.03
0.54 0.48 0.49 0.50 0.59 0.59 0.59 0.71 0.86 0.88 0.88 1.13 1.53 1.70 2.03 1.93 1.69 0.95 0.83 0.84 1.18 1.35 1.16 0.64 0.54 0.94 0.80 1.04 0.78 0.78 0.94 0.97 0.58 0.43 0.34 0.39 0.34 0.60 0.42 0.16 0.07 0.01 0.00 0.01 0.01 0.03 0.03 0.04 0.04 0.04 0.06 0.06 0.09 0.17
0.41 0.39 0.43 0.44 0.47 0.58 0.68 0.73 0.80 0.99 1.42 1.98 2.24 2.54 2.66 1.89 1.44 1.44 1.76 1.69 1.45 1.08 0.81 0.49 0.25 0.68 0.83 0.74 0.88 0.93 0.72 0.89 0.86 0.39 0.30 0.41 0.60 0.43 0.21 0.13 0.11 0.11 0.08 0.03 0.03 0.03 0.03 0.05 0.05 0.08 0.15 0.17 0.15 0.13
0.34 0.31 0.34 0.36 0.35 0.35 0.42 0.45 0.65 1.06 2.07 2.82 3.05 2.93 2.13 1.50 1.50 1.73 1.74 1.31 0.84 0.53 0.46 0.41 0.29 0.52 0.84 0.65 0.67 0.99 1.13 0.64 0.41 0.48 0.45 0.44 0.30 0.27 0.19 0.20 0.20 0.15 0.14 0.15 0.11 0.05 0.03 0.07 0.14 0.16 0.15 0.11 0.08 0.03
0.32 0.26 0.27 0.20 0.10 0.13 0.26 0.42 0.62 0.94 1.52 2.17 2.25 1.70 1.60 1.68 1.52 1.53 1.26 0.77 0.30 0.21 0.26 0.24 0.15 0.31 0.89 1.06 0.63 1.07 1.01 0.98 0.64 0.27 0.35 0.34 0.22 0.08 0.09 0.10 0.13 0.21 0.22 0.17 0.20 0.26 0.31 0.28 0.21 0.15 0.09 0.06 0.05 0.07
0.33 0.27 0.26 0.19 0.11 0.10 0.16 0.39 0.61 0.87 1.46 1.75 1.67 1.92 2.06 2.14 1.86 1.46 0.67 0.35 0.21 0.16 0.15 0.12 0.16 0.26 0.51 0.81 1.03 0.67 0.93 0.68 0.87 0.91 0.52 0.33 0.15 0.11 0.12 0.13 0.16 0.20 0.26 0.34 0.36 0.39 0.39 0.41 0.42 0.37 0.39 0.47 0.49 0.61
0.31 0.26 0.23 0.24 0.28 0.33 0.36 0.41 0.59 1.17 1.37 1.18 1.34 1.64 1.58 1.54 1.24 0.88 0.41 0.23 0.21 0.16 0.12 0.11 0.13 0.17 0.32 0.60 0.97 1.00 1.06 0.82 0.91 0.95 0.47 0.44 0.48 0.34 0.18 0.14 0.14 0.22 0.27 0.37 0.54 0.58 0.60 0.63 0.80 0.95 0.98 1.00 0.81 0.82
0.21 0.19 0.25 0.36 0.35 0.42 0.53 0.63 0.80 0.76 0.85 0.91 0.94 1.03 0.90 0.92 0.74 0.54 0.43 0.31 0.30 0.29 0.27 0.36 0.50 0.44 0.51 0.81 0.84 0.79 0.78 0.69 0.51 0.50 0.61 0.62 0.45 0.27 0.27 0.25 0.27 0.34 0.44 0.55 0.61 0.60 0.65 0.61 0.50 0.68 0.77 0.72 0.54 0.55
0.37 0.24 0.22 0.30 0.34 0.44 0.58 0.69 0.64 0.59 0.74 0.56 0.55 0.56 0.54 0.55 0.60 0.56 0.54 0.48 0.49 0.58 0.57 0.76 0.83 0.79 0.92 0.65 0.55 0.62 0.49 0.51 0.60 0.43 0.36 0.35 0.38 0.42 0.43 0.48 0.55 0.62 0.65 0.63 0.62 0.55 0.52 0.47 0.36 0.44 0.48 0.44 0.45 0.35
0.66 0.28 0.18 0.18 0.23 0.28 0.34 0.47 0.44 0.44 0.49 0.41 0.62 0.66 0.58 0.53 0.55 0.59 0.54 0.49 0.46 0.60 0.55 0.44 0.41 0.57 0.62 0.46 0.47 0.47 0.63 0.63 0.55 0.50 0.47 0.43 0.45 0.56 0.63 0.65 0.72 0.73 0.66 0.55 0.49 0.46 0.47 0.44 0.30 0.19 0.28 0.40 0.29 0.27
1.03 0.46 0.31 0.31 0.26 0.29 0.40 0.40 0.26 0.15 0.26 0.52 0.60 0.81 0.67 0.80 0.70 0.56 0.56 0.48 0.36 0.38 0.32 0.32 0.25 0.23 0.35 0.35 0.41 0.51 0.59 0.59 0.58 0.66 0.76 0.77 0.69 0.73 0.74 0.76 0.80 0.68 0.55 0.57 0.51 0.51 0.48 0.40 0.30 0.36 0.31 0.30 0.19 0.19
0.60 0.41 0.34 0.29 0.19 0.19 0.25 0.16 0.07 0.18 0.51 0.54 0.64 0.60 0.51 0.62 0.70 0.70 0.59 0.51 0.40 0.27 0.26 0.34 0.36 0.40 0.48 0.55 0.65 0.65 0.74 0.63 0.67 0.79 0.86 0.93 0.89 0.83 0.85 0.78 0.70 0.63 0.54 0.57 0.46 0.42 0.41 0.36 0.33 0.29 0.25 0.19 0.17 0.15
0.83 0.65 0.34 0.21 0.05 0.02 0.01 0.06 0.01 0.09 0.38 0.48 0.55 0.37 0.28 0.44 0.36 0.19 0.15 0.13 0.13 0.12 0.26 0.37 0.61 0.74 0.82 0.88 0.89 0.83 0.88 0.71 0.55 0.47 0.65 0.81 0.92 0.71 0.75 0.62 0.59 0.56 0.44 0.42 0.39 0.35 0.28 0.23 0.23 0.18 0.13 0.10 0.10 0.08
0.71 0.76 0.41 0.15 0.04 0.00 0.01 0.02 0.05 0.08 0.14 0.31 0.27 0.10 0.17 0.09 0.03 0.02 0.01 0.00 0.04 0.24 0.53 0.74 0.74 0.80 0.86 0.84 0.75 0.62 0.62 0.51 0.50 0.36 0.44 0.54 0.72 0.51 0.52 0.54 0.45 0.37 0.32 0.33 0.27 0.29 0.21 0.20 0.16 0.11 0.11 0.08 0.07 0.07
0.41 0.46 0.39 0.20 0.14 0.01 0.02 0.02 0.07 0.09 0.05 0.11 0.08 0.05 0.09 0.08 0.05 0.02 0.00 0.03 0.26 0.51 0.63 0.65 0.62 0.59 0.53 0.59 0.69 0.61 0.69 0.47 0.41 0.37 0.40 0.36 0.40 0.41 0.44 0.49 0.33 0.32 0.29 0.28 0.20 0.15 0.11 0.09 0.09 0.07 0.06 0.05 0.05 0.06
0.38 0.41 0.41 0.34 0.19 0.05 0.02 0.00 0.01 0.03 0.03 0.04 0.03 0.02 0.04 0.05 0.05 0.01 0.04 0.14 0.42 0.64 0.55 0.43 0.49 0.47 0.48 0.60 0.39 0.41 0.52 0.38 0.35 0.40 0.41 0.37 0.35 0.35 0.30 0.29 0.23 0.18 0.14 0.13 0.12 0.10 0.09 0.07 0.05 0.03 0.02 0.05 0.09 0.09
0.37 0.38 0.35 0.31 0.18 0.11 0.04 0.02 0.01 0.02 0.01 0.03 0.02 0.05 0.08 0.06 0.02 0.02 0.09 0.23 0.46 0.34 0.30 0.42 0.35 0.33 0.27 0.22 0.26 0.35 0.48 0.29 0.26 0.29 0.29 0.16 0.13 0.16 0.11 0.11 0.09 0.09 0.10 0.08 0.06 0.04 0.03 0.03 0.04 0.05 0.07 0.09 0.08 0.10
0.30 0.29 0.24 0.16 0.06 0.03 0.02 0.03 0.04 0.03 0.03 0.03 0.04 0.07 0.05 0.03 0.02 0.05 0.10 0.29 0.24 0.24 0.26 0.25 0.19 0.21 0.24 0.31 0.31 0.28 0.21 0.14 0.11 0.12 0.18 0.10 0.08 0.06 0.05 0.06 0.05 0.06 0.05 0.04 0.03 0.04 0.05 0.07 0.08 0.07 0.06 0.08 0.11 0.13
0.17 0.12 0.10 0.08 0.04 0.04 0.04 0.04 0.05 0.05 0.05 0.08 0.11 0.10 0.05 0.06 0.05 0.12 0.20 0.31 0.23 0.26 0.29 0.28 0.23 0.15 0.15 0.15 0.15 0.13 0.11 0.09 0.04 0.03 0.08 0.06 0.07 0.07 0.06 0.05 0.04 0.04 0.03 0.07 0.13 0.12 0.07 0.04 0.05 0.07 0.08 0.09 0.13 0.16
0.08 0.05 0.02 0.03 0.05 0.08 0.09 0.07 0.10 0.10 0.11 0.16 0.13 0.10 0.15 0.12 0.11 0.23 0.25 0.23 0.20 0.25 0.20 0.15 0.09 0.07 0.09 0.09 0.06 0.04 0.02 0.01 0.01 0.02 0.03 0.03 0.03 0.04 0.08 0.15 0.17 0.16 0.09 0.09 0.13 0.15 0.17 0.14 0.12 0.11 0.13 0.11 0.13 0.21
0.05 0.05 0.09 0.10 0.14 0.14 0.14 0.13 0.16 0.16 0.15 0.16 0.15 0.11 0.13 0.12 0.21 0.28 0.26 0.28 0.19 0.12 0.06 0.04 0.02 0.02 0.03 0.05 0.06 0.04 0.03 0.02 0.01 0.01 0.02 0.06 0.06 0.09 0.10 0.11 0.12 0.09 0.07 0.10 0.11 0.13 0.18 0.21 0.20 0.17 0.18 0.20 0.19 0.16
0.09 0.08 0.08 0.09 0.10 0.08 0.10 0.12 0.13 0.14 0.15 0.13 0.09 0.08 0.10 0.16 0.30 0.27 0.27 0.20 0.16 0.09 0.06 0.07 0.10 0.06 0.04 0.02 0.01 0.03 0.03 0.05 0.05 0.04 0.03 0.04 0.10 0.13 0.09 0.08 0.08 0.08 0.09 0.08 0.08 0.13 0.16 0.18 0.17 0.17 0.23 0.25 0.21 0.23
0.05 0.05 0.04 0.04 0.05 0.10 0.13 0.09 0.11 0.08 0.04 0.03 0.04 0.06 0.09 0.22 0.34 0.25 0.17 0.14 0.12 0.11 0.11 0.09 0.10 0.06 0.06 0.04 0.03 0.05 0.10 0.08 0.10 0.14 0.13 0.11 0.11 0.11 0.09 0.10 0.09 0.09 0.09 0.08 0.07 0.06 0.06 0.05 0.06 0.13 0.13 0.13 0.20 0.25
0.02 0.02 0.02 0.03 0.07 0.11 0.08 0.05 0.07 0.07 0.06 0.05 0.05 0.05 0.13 0.18 0.19 0.14 0.12 0.15 0.07 0.06 0.05 0.04 0.04 0.06 0.05 0.06 0.09 0.10 0.13 0.12 0.12 0.13 0.13 0.12 0.11 0.10 0.09 0.08 0.07 0.07 0.07 0.07 0.07 0.08 0.08 0.07 0.10 0.12 0.09 0.09 0.13 0.14
0.02 0.03 0.02 0.02 0.09 0.07 0.08 0.14 0.10 0.10 0.09 0.06 0.09 0.06 0.12 0.10 0.09 0.13 0.12 0.10 0.07 0.08 0.08 0.10 0.11 0.13 0.15 0.16 0.15 0.14 0.14 0.14 0.12 0.12 0.12 0.12 0.11 0.09 0.06 0.06 0.06 0.07 0.07 0.06 0.07 0.08 0.09 0.08 0.09 0.07 0.10 0.09 0.09 0.09
0.02 0.02 0.02 0.03 0.05 0.08 0.07 0.09 0.05 0.04 0.06 0.07 0.11 0.12 0.12 0.11 0.17 0.23 0.18 0.13 0.18 0.18 0.17 0.18 0.20 0.21 0.21 0.17 0.14 0.14 0.13 0.12 0.11 0.10 0.11 0.09 0.07 0.04 0.04 0.05 0.05 0.05 0.06 0.06 0.08 0.09 0.08 0.07 0.07 0.08 0.08 0.07 0.08 0.07

GFSWCAN_prec_precacc_084.txt.gz
Total_Precipitation_Accumulation
0.88 0.72 0.58 0.44 0.51 0.46 0.50 0.63 0.62 0.63 0.56 0.58 0.65 0.50 0.37 0.47 0.88 1.29 1.37 1.08 2.52 1.41 0.39 0.28 0.19 0.06 0.03 0.23 0.45 0.21 0.43 0.44 0.52 0.41 0.22 0.10 0.03 0.01 0.01 0.02 0.15 0.16 0.15 0.13 0.20 0.18 0.06 0.03 0.07 0.15 0.19 0.10 0.08 0.06
1.21 0.94 0.55 0.43 0.42 0.45 0.48 0.64 0.62 0.62 0.47 0.46 0.60 0.57 0.49 0.58 1.09 1.22 1.11 1.03 1.78 1.60 0.79 0.41 0.31 0.11 0.02 0.06 0.29 0.10 0.17 0.14 0.15 0.18 0.12 0.09 0.05 0.02 0.00 0.00 0.01 0.07 0.12 0.17 0.14 0.07 0.03 0.02 0.03 0.07 0.06 0.08 0.06 0.06
1.28 1.13 0.82 0.49 0.39 0.45 0.59 0.67 0.61 0.68 0.58 0.52 0.67 0.72 0.63 0.88 1.27 1.24 0.95 1.03 2.33 2.42 0.99 0.53 0.44 0.25 0.11 0.05 0.14 0.18 0.08 0.05 0.07 0.15 0.17 0.18 0.11 0.03 0.01 0.01 0.02 0.04 0.04 0.10 0.13 0.04 0.04 0.07 0.03 0.03 0.05 0.05 0.07 0.16
1.25 1.06 0.92 0.65 0.47 0.44 0.47 0.52 0.50 0.62 0.72 0.77 0.90 0.85 0.84 1.29 1.38 1.30 1.15 1.15 1.73 1.87 1.48 0.50 0.24 0.30 0.19 0.08 0.08 0.09 0.08 0.07 0.12 0.20 0.31 0.32 0.23 0.10 0.07 0.02 0.07 0.05 0.04 0.06 0.10 0.05 0.07 0.10 0.17 0.14 0.13 0.19 0.16 0.06
0.85 0.88 0.74 0.65 0.61 0.49 0.44 0.47 0.51 0.64 0.84 0.93 1.25 0.98 1.14 1.36 1.50 1.61 1.29 1.33 1.19 1.41 1.22 0.66 0.37 0.35 0.52 0.27 0.22 0.15 0.13 0.23 0.35 0.39 0.33 0.20 0.08 0.09 0.09 0.09 0.10 0.02 0.01 0.05 0.05 0.06 0.13 0.17 0.18 0.23 0.18 0.06 0.04 0.06
0.75 0.69 0.73 0.61 0.56 0.64 0.57 0.59 0.65 0.70 0.72 1.03 1.14 1.11 1.17 1.38 2.17 2.36 2.57 1.56 1.32 1.19 1.18 1.04 0.60 0.40 0.56 0.62 0.47 0.49 0.36 0.34 0.46 0.38 0.25 0.12 0.08 0.21 0.18 0.08 0.01 0.01 0.02 0.05 0.07 0.07 0.10 0.16 0.12 0.05 0.02 0.02 0.02 0.00
0.88 0.71 0.70 0.66 0.61 0.69 0.84 0.75 0.65 0.64 0.82 1.04 0.96 1.22 1.24 1.57 1.72 1.31 1.25 1.05 1.09 1.22 1.39 0.96 0.77 0.59 0.67 0.75 0.76 0.46 0.47 0.46 0.56 0.60 0.30 0.16 0.14 0.31 0.34 0.18 0.01 0.01 0.03 0.03 0.02 0.04 0.06 0.04 0.02 0.02 0.03 0.02 0.01 0.01
0.89 0.74 0.58 0.65 0.58 0.57 0.68 0.85 0.86 0.88 0.93 0.91 1.19 1.40 1.50 1.64 1.51 0.88 0.41 0.48 0.89 1.35 1.20 0.97 0.71 0.91 0.88 0.96 0.78 0.76 0.66 0.60 0.66 0.71 0.43 0.23 0.25 0.37 0.39 0.12 0.02 0.00 0.00 0.02 0.02 0.02 0.03 0.03 0.02 0.03 0.04 0.06 0.05 0.03
0.57 0.52 0.52 0.59 0.62 0.60 0.63 0.78 0.94 1.00 1.04 1.30 1.68 1.93 2.31 2.16 1.92 1.02 0.83 0.84 1.19 1.38 1.17 0.65 0.65 1.04 0.84 1.05 0.82 0.81 0.96 1.03 0.64 0.48 0.36 0.45 0.39 0.66 0.46 0.17 0.07 0.02 0.00 0.01 0.01 0.03 0.03 0.04 0.04 0.04 0.06 0.06 0.10 0.17
0.43 0.41 0.46 0.50 0.55 0.62 0.72 0.81 0.92 1.10 1.51 2.03 2.30 2.63 2.83 1.99 1.47 1.47 1.81 1.76 1.48 1.10 0.82 0.50 0.27 0.80 0.91 0.82 0.96 1.11 0.78 0.99 0.93 0.52 0.35 0.47 0.65 0.46 0.22 0.14 0.11 0.11 0.08 0.03 0.03 0.03 0.03 0.05 0.05 0.08 0.15 0.17 0.15 0.13
0.35 0.32 0.34 0.38 0.38 0.37 0.43 0.46 0.67 1.08 2.08 2.83 3.06 3.04 2.23 1.52 1.52 1.76 1.78 1.35 0.86 0.55 0.46 0.41 0.32 0.69 0.93 0.77 0.75 1.15 1.21 0.71 0.48 0.55 0.50 0.48 0.32 0.28 0.20 0.20 0.20 0.15 0.14 0.15 0.11 0.06 0.04 0.08 0.15 0.16 0.16 0.12 0.08 0.03
0.32 0.26 0.27 0.21 0.11 0.14 0.26 0.42 0.62 0.95 1.52 2.17 2.27 1.75 1.63 1.72 1.56 1.56 1.29 0.83 0.32 0.26 0.35 0.34 0.27 0.49 0.95 1.20 0.76 1.10 1.04 0.99 0.66 0.30 0.37 0.35 0.23 0.09 0.09 0.10 0.13 0.21 0.22 0.17 0.20 0.27 0.31 0.28 0.22 0.15 0.10 0.07 0.06 0.09
0.33 0.27 0.26 0.19 0.11 0.10 0.16 0.39 0.61 0.87 1.46 1.75 1.67 1.92 2.07 2.15 1.86 1.46 0.68 0.36 0.22 0.19 0.24 0.22 0.28 0.33 0.55 0.87 1.07 0.68 0.94 0.69 0.87 0.92 0.53 0.34 0.15 0.11 0.12 0.13 0.16 0.21 0.26 0.34 0.37 0.40 0.39 0.42 0.43 0.38 0.41 0.52 0.54 0.66
0.31 0.26 0.23 0.24 0.28 0.33 0.36 0.41 0.59 1.17 1.37 1.18 1.34 1.64 1.58 1.54 1.25 0.88 0.42 0.25 0.23 0.21 0.17 0.14 0.13 0.17 0.33 0.60 0.97 1.01 1.07 0.83 0.92 0.95 0.48 0.44 0.48 0.35 0.19 0.14 0.14 0.22 0.28 0.37 0.54 0.59 0.61 0.65 0.82 0.98 1.03 1.09 0.94 0.97
0.21 0.19 0.25 0.36 0.35 0.42 0.53 0.63 0.80 0.76 0.85 0.91 0.94 1.03 0.90 0.94 0.76 0.56 0.45 0.34 0.33 0.31 0.28 0.36 0.50 0.44 0.51 0.81 0.84 0.80 0.78 0.70 0.52 0.50 0.62 0.63 0.45 0.28 0.28 0.26 0.28 0.34 0.44 0.56 0.62 0.61 0.68 0.64 0.53 0.72 0.80 0.76 0.60 0.64
0.37 0.24 0.22 0.30 0.34 0.44 0.58 0.69 0.64 0.59 0.74 0.56 0.55 0.57 0.55 0.57 0.61 0.58 0.55 0.49 0.49 0.58 0.57 0.76 0.83 0.79 0.92 0.65 0.55 0.62 0.49 0.52 0.61 0.44 0.38 0.36 0.38 0.44 0.45 0.49 0.56 0.63 0.66 0.65 0.65 0.57 0.55 0.51 0.40 0.48 0.53 0.48 0.49 0.38
0.66 0.28 0.18 0.18 0.23 0.28 0.34 0.47 0.44 0.44 0.49 0.41 0.62 0.67 0.59 0.54 0.57 0.60 0.54 0.49 0.46 0.60 0.55 0.44 0.41 0.58 0.62 0.46 0.47 0.47 0.64 0.64 0.56 0.51 0.47 0.45 0.46 0.57 0.65 0.67 0.73 0.75 0.68 0.57 0.53 0.51 0.52 0.49 0.34 0.23 0.32 0.45 0.33 0.30
1.03 0.46 0.31 0.31 0.26 0.29 0.40 0.40 0.26 0.15 0.27 0.52 0.61 0.82 0.68 0.81 0.71 0.56 0.56 0.48 0.36 0.38 0.32 0.32 0.25 0.23 0.36 0.36 0.42 0.52 0.60 0.60 0.59 0.67 0.77 0.78 0.70 0.74 0.76 0.78 0.83 0.71 0.58 0.60 0.54 0.55 0.52 0.45 0.33 0.39 0.34 0.34 0.22 0.22
0.60 0.41 0.34 0.29 0.19 0.19 0.25 0.16 0.07 0.18 0.51 0.55 0.65 0.60 0.51 0.62 0.70 0.70 0.59 0.51 0.40 0.27 0.26 0.34 0.36 0.41 0.49 0.56 0.67 0.67 0.76 0.64 0.68 0.80 0.87 0.94 0.90 0.84 0.86 0.80 0.72 0.66 0.57 0.60 0.50 0.45 0.44 0.40 0.36 0.32 0.27 0.22 0.20 0.17
0.83 0.65 0.34 0.21 0.05 0.02 0.01 0.06 0.01 0.09 0.38 0.48 0.55 0.37 0.28 0.44 0.36 0.19 0.15 0.13 0.13 0.12 0.26 0.38 0.62 0.75 0.84 0.90 0.90 0.84 0.89 0.72 0.55 0.47 0.66 0.82 0.93 0.72 0.76 0.64 0.60 0.58 0.45 0.44 0.41 0.37 0.30 0.24 0.24 0.19 0.14 0.11 0.10 0.08
0.71 0.76 0.41 0.15 0.04 0.00 0.01 0.02 0.05 0.08 0.14 0.31 0.27 0.10 0.17 0.09 0.03 0.02 0.01 0.00 0.04 0.25 0.54 0.75 0.75 0.82 0.87 0.85 0.76 0.62 0.63 0.51 0.50 0.36 0.44 0.54 0.73 0.52 0.53 0.55 0.47 0.39 0.33 0.34 0.29 0.30 0.22 0.21 0.17 0.11 0.11 0.08 0.07 0.07
0.41 0.46 0.39 0.20 0.14 0.01 0.02 0.02 0.07 0.09 0.05 0.11 0.08 0.05 0.09 0.08 0.05 0.02 0.00 0.04 0.27 0.52 0.64 0.66 0.63 0.60 0.54 0.60 0.70 0.62 0.69 0.47 0.42 0.37 0.41 0.37 0.41 0.42 0.45 0.50 0.35 0.34 0.30 0.29 0.21 0.16 0.12 0.09 0.09 0.07 0.06 0.05 0.05 0.06
0.38 0.41 0.41 0.34 0.19 0.05 0.02 0.00 0.01 0.03 0.03 0.04 0.03 0.02 0.04 0.05 0.05 0.01 0.04 0.14 0.43 0.66 0.56 0.44 0.50 0.48 0.49 0.60 0.39 0.42 0.52 0.38 0.35 0.40 0.42 0.37 0.36 0.36 0.31 0.30 0.24 0.19 0.15 0.13 0.12 0.10 0.09 0.07 0.05 0.03 0.02 0.05 0.09 0.09
0.37 0.38 0.35 0.31 0.18 0.11 0.04 0.02 0.01 0.02 0.01 0.03 0.02 0.05 0.08 0.06 0.02 0.02 0.09 0.24 0.47 0.36 0.30 0.43 0.36 0.33 0.28 0.22 0.26 0.35 0.48 0.29 0.27 0.29 0.30 0.16 0.14 0.16 0.11 0.11 0.09 0.09 0.10 0.08 0.06 0.04 0.03 0.03 0.04 0.05 0.07 0.09 0.08 0.10
0.30 0.29 0.24 0.16 0.06 0.03 0.02 0.03 0.04 0.03 0.03 0.03 0.04 0.07 0.05 0.03 0.02 0.05 0.10 0.29 0.24 0.24 0.27 0.25 0.20 0.21 0.24 0.31 0.32 0.29 0.22 0.14 0.12 0.13 0.18 0.10 0.08 0.06 0.05 0.06 0.05 0.06 0.05 0.04 0.03 0.04 0.05 0.07 0.08 0.07 0.06 0.08 0.11 0.13
0.17 0.12 0.10 0.08 0.04 0.04 0.04 0.04 0.05 0.05 0.05 0.08 0.11 0.10 0.05 0.06 0.05 0.12 0.20 0.31 0.24 0.26 0.29 0.28 0.23 0.15 0.15 0.15 0.15 0.14 0.11 0.09 0.04 0.03 0.08 0.06 0.07 0.07 0.06 0.05 0.04 0.04 0.03 0.07 0.13 0.12 0.07 0.04 0.05 0.07 0.08 0.09 0.13 0.16
0.08 0.05 0.02 0.03 0.05 0.08 0.09 0.07 0.10 0.10 0.11 0.16 0.13 0.10 0.15 0.12 0.11 0.23 0.25 0.23 0.20 0.26 0.20 0.16 0.09 0.07 0.09 0.09 0.06 0.04 0.02 0.01 0.01 0.02 0.03 0.03 0.03 0.04 0.08 0.15 0.17 0.16 0.09 0.09 0.13 0.15 0.17 0.14 0.12 0.11 0.13 0.11 0.13 0.21
0.05 0.05 0.09 0.10 0.14 0.14 0.14 0.13 0.16 0.16 0.15 0.16 0.15 0.11 0.13 0.12 0.21 0.29 0.27 0.29 0.20 0.12 0.06 0.04 0.02 0.02 0.03 0.05 0.06 0.04 0.03 0.02 0.01 0.01 0.02 0.06 0.06 0.09 0.10 0.11 0.12 0.09 0.07 0.10 0.11 0.13 0.18 0.21 0.20 0.17 0.18 0.20 0.19 0.16
0.09 0.08 0.08 0.09 0.10 0.08 0.10 0.12 0.13 0.14 0.15 0.13 0.09 0.08 0.10 0.16 0.31 0.28 0.28 0.21 0.16 0.09 0.06 0.07 0.11 0.06 0.04 0.02 0.01 0.03 0.03 0.05 0.05 0.04 0.03 0.04 0.10 0.13 0.09 0.08 0.08 0.08 0.09 0.08 0.08 0.13 0.16 0.18 0.17 0.17 0.23 0.25 0.21 0.23
0.05 0.05 0.04 0.04 0.05 0.10 0.14 0.09 0.11 0.09 0.04 0.03 0.04 0.07 0.09 0.22 0.35 0.26 0.18 0.14 0.12 0.11 0.11 0.09 0.10 0.06 0.06 0.04 0.03 0.05 0.11 0.09 0.10 0.14 0.14 0.11 0.11 0.11 0.09 0.10 0.09 0.09 0.09 0.09 0.07 0.07 0.07 0.05 0.06 0.13 0.13 0.13 0.20 0.25
0.02 0.02 0.02 0.03 0.07 0.11 0.08 0.05 0.07 0.07 0.06 0.05 0.05 0.05 0.14 0.18 0.20 0.15 0.12 0.16 0.08 0.06 0.05 0.04 0.04 0.06 0.05 0.06 0.09 0.10 0.13 0.12 0.12 0.13 0.13 0.12 0.12 0.11 0.09 0.08 0.07 0.07 0.07 0.07 0.07 0.08 0.08 0.07 0.10 0.12 0.09 0.10 0.13 0.14
0.02 0.03 0.02 0.02 0.09 0.07 0.08 0.14 0.10 0.10 0.09 0.06 0.09 0.06 0.12 0.10 0.10 0.14 0.13 0.10 0.07 0.08 0.08 0.10 0.11 0.13 0.15 0.16 0.15 0.14 0.14 0.14 0.12 0.12 0.12 0.12 0.11 0.09 0.06 0.06 0.06 0.07 0.08 0.06 0.07 0.09 0.09 0.09 0.09 0.07 0.10 0.09 0.09 0.09
0.02 0.02 0.02 0.03 0.05 0.08 0.07 0.09 0.05 0.04 0.06 0.07 0.11 0.12 0.12 0.11 0.17 0.23 0.18 0.14 0.18 0.19 0.18 0.18 0.20 0.21 0.21 0.17 0.14 0.14 0.13 0.12 0.11 0.10 0.11 0.09 0.07 0.04 0.04 0.05 0.05 0.05 0.06 0.06 0.08 0.09 0.08 0.07 0.08 0.08 0.08 0.07 0.08 0.07